CAPE
2 1 0 1 0 0 0 0 0 0 0 0 0 0 0 0 0 0 0 0 0 0 0 0 0 0 0 0 0 0 0 0 0 0 0 0 0 0 0 0 0 0 0 0 0 0 0
4 2 1 1 1 0 0 0 0 0 0 0 0 0 0 0 0 0 0 0 0 0 0 0 0 0 0 0 0 0 0 0 0 0 0 0 0 0 0 0 0 0 0 0 0 0 0
4 2 1 1 1 0 0 0 0 0 0 0 0 0 0 0 0 0 0 0 0 0 0 0 0 0 0 0 0 0 0 0 0 0 0 0 0 0 0 0 0 0 0 0 0 0 0
3 2 1 1 0 0 0 0 0 0 0 0 0 0 0 0 0 0 0 0 0 0 0 0 0 0 0 0 0 0 0 0 0 0 0 0 0 0 0 0 0 0 0 0 0 0 0
3 2 1 0 0 0 0 0 0 0 0 0 0 0 0 0 0 0 0 0 0 0 0 0 0 0 0 0 0 0 0 0 0 0 0 0 0 0 0 0 0 0 0 0 0 0 0
4 2 1 0 0 0 0 0 0 0 0 0 0 0 0 0 0 0 0 0 0 0 0 0 0 0 0 0 0 0 0 0 0 0 0 0 0 0 0 0 0 0 0 0 0 0 0
3 2 1 0 0 0 0 0 0 0 0 0 0 0 0 0 0 0 0 0 0 0 0 0 0 0 0 0 0 0 0 0 0 0 0 0 0 0 0 0 0 0 0 0 0 0 0
3 1 1 0 0 0 0 0 0 0 0 0 0 0 0 0 0 0 0 0 0 0 0 0 0 0 0 0 0 0 0 0 0 0 0 0 0 0 0 0 0 0 0 0 0 0 0
2 2 1 0 0 0 0 0 0 0 0 0 0 0 0 0 0 0 0 0 0 0 0 0 0 0 0 0 0 0 0 0 0 0 0 0 0 0 0 0 0 0 0 0 0 0 0
3 3 1 0 0 0 0 0 0 0 0 0 0 0 0 0 0 0 0 0 0 0 0 0 0 0 0 0 0 0 0 0 0 0 0 0 0 0 0 0 0 0 0 0 0 0 0
3 2 1 0 0 0 0 0 0 0 0 0 0 0 0 0 0 0 0 0 0 0 0 0 0 0 0 0 0 0 0 0 0 0 0 0 0 0 0 0 0 0 0 0 0 0 0
2 1 1 0 0 0 0 0 0 0 0 0 0 0 0 0 0 0 0 0 0 0 0 0 0 0 0 0 0 0 0 0 0 0 0 0 0 0 0 0 0 0 0 0 0 0 0
2 2 1 0 0 0 0 0 0 0 0 0 0 0 0 0 0 0 0 0 0 0 0 0 0 0 0 0 0 0 0 0 0 0 0 0 0 0 0 0 0 0 0 0 0 0 1
2 1 1 0 0 0 0 0 0 0 0 0 0 0 0 0 0 0 0 0 0 0 0 0 0 0 0 0 0 0 0 0 0 0 0 0 0 0 0 0 0 0 0 3 0 0 0
2 2 0 0 0 0 0 0 0 0 0 0 0 0 0 0 0 0 0 0 0 0 0 0 0 0 0 0 0 0 0 0 0 0 0 0 0 0 0 0 0 1 5 6 0 0 0
3 2 0 0 0 0 0 0 0 0 0 0 0 0 0 0 0 0 0 0 0 0 0 0 0 0 0 0 0 0 0 0 0 0 0 0 0 0 1 0 2 1 0 6 8 0 1
2 2 0 0 0 0 0 0 0 0 0 0 0 0 0 0 0 0 0 0 0 0 0 0 0 0 0 0 0 0 0 0 0 0 0 0 2 0 3 5 0 2 2 0 1 1 4
2 3 0 0 0 0 0 0 0 0 0 0 0 0 0 0 0 0 0 0 0 0 0 0 0 0 0 0 0 0 0 0 0 0 0 0 0 0 0 1 0 0 25 0 0 0 0
1 2 1 0 0 0 0 0 0 0 0 0 0 0 0 0 0 0 0 0 0 0 0 0 0 0 0 0 0 0 0 0 0 0 0 1 1 0 0 0 0 1 0 0 0 0 0
2 2 1 0 0 0 0 0 0 0 0 0 0 0 0 0 0 0 0 0 0 0 0 0 0 0 0 0 0 0 0 0 0 0 1 4 2 3 0 0 0 0 0 0 0 0 0
1 1 0 0 0 0 0 0 0 0 0 0 0 0 0 0 0 0 0 0 0 0 0 0 0 0 0 0 0 0 0 0 0 0 0 0 0 0 0 0 0 0 0 0 0 0 0
0 0 0 0 0 0 0 0 0 0 0 0 0 0 0 0 0 0 0 0 0 0 0 0 0 0 0 0 0 0 0 0 0 0 0 0 0 0 1 0 0 0 0 0 0 0 0
0 0 2 1 0 0 0 0 0 0 0 0 0 0 0 0 0 0 0 0 0 0 0 0 0 0 0 0 0 0 0 0 0 0 0 0 0 0 3 0 0 0 0 1 0 1 0
0 0 2 2 0 0 0 0 0 0 0 0 0 0 1 0 0 0 0 0 0 0 0 0 0 0 0 0 0 0 0 0 0 0 0 0 0 5 3 1 0 2 0 0 0 0 0
0 0 0 1 1 0 0 0 0 0 0 0 0 0 0 0 0 0 0 0 0 0 0 0 0 0 0 0 0 0 0 0 0 0 0 0 0 0 1 0 0 0 0 0 0 0 0
0 0 0 0 0 0 0 0 0 0 0 0 0 0 1 0 0 0 0 0 0 0 0 0 0 0 0 0 0 0 0 0 0 0 0 0 0 0 5 0 0 0 0 0 0 0 0
0 0 0 0 0 0 0 0 0 0 0 0 0 0 0 0 0 0 0 0 0 0 0 0 0 0 0 0 0 0 0 0 0 0 0 0 0 0 1 4 0 0 0 1 0 1 3
0 0 0 0 0 0 0 0 0 0 0 0 1 0 0 0 0 0 0 0 0 0 0 0 0 0 0 0 0 0 0 0 0 0 0 0 0 1 0 0 1 0 0 2 5 10 6
0 0 0 0 0 0 0 0 0 0 0 0 3 1 2 0 1 0 0 0 0 0 0 0 0 0 0 0 0 0 4 0 0 0 0 0 0 0 5 0 0 0 1 3 0 4 3
CIN
-0 -0 -0 -0 -0 -0 -0 -0 -0 -0 -0 -0 -0 -0 -0 -0 -0 -0 -0 -0 -0 -0 -0 -0 -0 -0 -0 -0 -0 -0 -0 -0 -0 -0 -0 -0 -0 -0 -0 -0 -0 -0 -0 -0 -0 -0 -0
-0 -0 -0 -0 -0 -0 -0 -0 -0 -0 -0 -0 -0 -0 -0 -0 -0 -0 -0 -0 -0 -0 -0 -0 -0 -0 -0 -0 -0 -0 -0 -0 -0 -0 -0 -0 -0 -0 -0 -0 -0 -0 -0 -0 -0 -0 -0
-0 -0 -0 -0 -0 -0 -0 -0 -0 -0 -0 -0 -0 -0 -0 -0 -0 -0 -0 -0 -0 -0 -0 -0 -0 -0 -0 -0 -0 -0 -0 -0 -0 -0 -0 -0 -0 -0 -0 -0 -0 -0 -0 -0 -0 -0 -0
-0 -0 -0 -0 -0 -0 -0 -0 -0 -0 -0 -0 -0 -0 -0 -0 -0 -0 -0 -0 -0 -0 -0 -0 -0 -0 -0 -0 -0 -0 -0 -0 -0 -0 -0 -0 -0 -0 -0 -0 -0 -0 -0 -0 -0 -0 -0
-0 -0 -0 -0 -0 -0 -0 -0 -0 -0 -0 -0 -0 -0 -0 -0 -0 -0 -0 -0 -0 -0 -0 -0 -0 -0 -0 -0 -0 -0 -0 -0 -0 -0 -0 -0 -0 -0 -0 -0 -0 -0 -0 -0 -0 -0 -0
-0 -0 -0 -0 -0 -0 -0 -0 -0 -0 -0 -0 -0 -0 -0 -0 -0 -0 -0 -0 -0 -0 -0 -0 -0 -0 -0 -0 -0 -0 -0 -0 -0 -0 -0 -0 -0 -0 -0 -0 -0 -0 -0 -0 -0 -0 -0
-0 -0 -0 -0 -0 -0 -0 -0 -0 -0 -0 -0 -0 -0 -0 -0 -0 -0 -0 -0 -0 -0 -0 -0 -0 -0 -0 -0 -0 -0 -0 -0 -0 -0 -0 -0 -0 -0 -0 -0 -0 -0 -0 -0 -0 -0 -0
-0 -0 -0 -0 -0 -0 -0 -0 -0 -0 -0 -0 -0 -0 -0 -0 -0 -0 -0 -0 -0 -0 -0 -0 -0 -0 -0 -0 -0 -0 -0 -0 -0 -0 -0 -0 -0 -0 -0 -0 -0 -0 -0 -0 -0 -0 -0
-0 -0 -0 -0 -0 -0 -0 -0 -0 -0 -0 -0 -0 -0 -0 -0 -0 -0 -0 -0 -0 -0 -0 -0 -0 -0 -0 -0 -0 -0 -0 -0 -0 -0 -0 -0 -0 -0 -0 -0 -0 -0 -0 -0 -0 -0 -0
-0 -0 -0 -0 -0 -0 -0 -0 -0 -0 -0 -0 -0 -0 -0 -0 -0 -0 -0 -0 -0 -0 -0 -0 -0 -0 -0 -0 -0 -0 -0 -0 -0 -0 -0 -0 -0 -0 -0 -0 -0 -0 -0 -0 -0 -0 -0
-0 -0 -0 -0 -0 -0 -0 -0 -0 -0 -0 -0 -0 -0 -0 -0 -0 -0 -0 -0 -0 -0 -0 -0 -0 -0 -0 -0 -0 -0 -0 -0 -0 -0 -0 -0 -0 -0 -0 -0 -0 -0 -0 -0 -0 -0 -0
-0 -0 -0 -0 -0 -0 -0 -0 -0 -0 -0 -0 -0 -0 -0 -0 -0 -0 -0 -0 -0 -0 -0 -0 -0 -0 -0 -0 -0 -0 -0 -0 -0 -0 -0 -0 -0 -0 -0 -0 -0 -0 -0 -0 -0 -0 -0
-0 -0 -0 -0 -0 -0 -0 -0 -0 -0 -0 -0 -0 -0 -0 -0 -0 -0 -0 -0 -0 -0 -0 -0 -0 -0 -0 -0 -0 -0 -0 -0 -0 -0 -0 -0 -0 -0 -0 -0 -0 -0 -0 -0 -0 -0 -4
-0 -0 -0 -0 -0 -0 -0 -0 -0 -0 -0 -0 -0 -0 -0 -0 -0 -0 -0 -0 -0 -0 -0 -0 -0 -0 -0 -0 -0 -0 -0 -0 -0 -0 -0 -0 -0 -0 -0 -0 -0 -0 -0 -12 -0 -0 -0
-0 -0 -0 -0 -0 -0 -0 -0 -0 -0 -0 -0 -0 -0 -0 -0 -0 -0 -0 -0 -0 -0 -0 -0 -0 -0 -0 -0 -0 -0 -0 -0 -0 -0 -0 -0 -0 -0 -0 -0 -0 -10 -5 -16 -0 -0 -1
-0 -0 -0 -0 -0 -0 -0 -0 -0 -0 -0 -0 -0 -0 -0 -0 -0 -0 -0 -0 -0 -0 -0 -0 -0 -0 -0 -0 -0 -0 -0 -0 -0 -0 -0 -0 -0 -0 -6 -0 -13 -3 -2 -8 -23 -1 -10
-0 -0 -0 -0 -0 -0 -0 -0 -0 -0 -0 -0 -0 -0 -0 -0 -0 -0 -0 -0 -0 -0 -0 -0 -0 -0 -0 -0 -0 -0 -0 -0 -0 -0 -0 -0 -1 -0 -7 -9 -6 -3 -17 -17 -4 -3 -3
-0 -0 -0 -0 -0 -0 -0 -0 -0 -0 -0 -0 -0 -0 -0 -0 -0 -0 -0 -0 -0 -0 -0 -0 -0 -0 -0 -0 -0 -0 -0 -0 -0 -0 -0 -0 -3 -1 -0 -30 -0 -0 -10 -0 -0 -0 -0
-0 -0 -0 -0 -0 -0 -0 -0 -0 -0 -0 -0 -0 -0 -0 -0 -0 -0 -0 -0 -0 -0 -0 -0 -0 -0 -0 -0 -0 -0 -0 -0 -0 -0 -0 -2 -5 -1 -0 -0 -0 -0 -0 -0 -0 -0 -0
-0 -0 -0 -0 -0 -0 -0 -0 -0 -0 -0 -0 -0 -0 -0 -0 -0 -0 -0 -0 -0 -0 -0 -0 -0 -0 -0 -0 -0 -0 -0 -0 -0 -0 -2 -4 -7 -10 -0 -2 -0 -0 -0 -0 -0 -0 -0
-0 -0 -0 -0 -0 -0 -0 -0 -0 -0 -0 -0 -0 -0 -0 -0 -0 -0 -0 -0 -0 -0 -0 -0 -0 -0 -0 -0 -0 -0 -0 -0 -0 -0 -0 -0 -0 -1 -0 -0 -9 -1 -0 -0 -0 -0 -0
-0 -0 -0 -0 -0 -0 -0 -0 -0 -0 -0 -0 -0 -0 -0 -0 -0 -0 -0 -0 -0 -0 -0 -0 -0 -0 -0 -0 -0 -0 -0 -0 -0 -0 -0 -0 -0 -0 -1 -0 -0 -0 -0 -0 -1 -0 -0
-0 -0 -0 -0 -0 -0 -0 -0 -0 -0 -0 -0 -0 -0 -0 -0 -0 -0 -0 -0 -0 -0 -0 -0 -0 -0 -0 -0 -0 -0 -0 -0 -0 -0 -0 -0 -0 -3 -8 -0 -0 -0 -0 -1 -2 -3 -2
-0 -0 -0 -0 -0 -0 -0 -0 -0 -0 -0 -0 -0 -0 -0 -0 -0 -0 -0 -0 -0 -0 -0 -0 -0 -0 -0 -0 -0 -0 -0 -0 -0 -0 -0 -0 -0 -4 -4 -7 -0 -8 -0 -0 -0 -4 -4
-0 -0 -0 -0 -0 -0 -0 -0 -0 -0 -0 -0 -0 -0 -0 -0 -0 -0 -0 -0 -0 -0 -0 -0 -0 -0 -0 -0 -0 -0 -0 -0 -0 -0 -0 -0 -0 -1 -4 -2 -0 -0 -0 -0 -1 -0 -0
-0 -0 -0 -0 -0 -0 -0 -0 -0 -0 -0 -0 -0 -0 -0 -0 -0 -0 -0 -0 -0 -0 -0 -0 -0 -0 -0 -0 -0 -0 -0 -0 -0 -0 -0 -0 -0 -0 -5 -0 -1 -0 -0 -0 -0 -0 -0
-0 -0 -0 -0 -0 -0 -0 -0 -0 -0 -0 -0 -0 -0 -0 -0 -0 -0 -0 -0 -0 -0 -0 -0 -0 -0 -0 -0 -1 -0 -0 -0 -0 -0 -0 -0 -0 -5 -6 -11 -0 -0 -0 -1 -0 -0 -6
-0 -0 -0 -0 -0 -0 -0 -0 -0 -0 -0 -0 -0 -0 -0 -0 -0 -0 -0 -0 -0 -0 -0 -0 -0 -0 -0 -0 -0 -0 -0 -0 -0 -0 -0 -0 -0 -4 -0 -2 -1 -0 -2 -9 -6 -11 -7
-0 -0 -0 -0 -0 -0 -0 -0 -0 -0 -0 -0 -1 -0 -1 -0 -0 -0 -0 -0 -0 -0 -0 -0 -0 -0 -0 -0 -0 -1 -2 -0 -0 -0 -0 -0 -0 -0 -5 -0 -0 -0 -10 -13 -7 -5 -10
Wind_Speed
20 20 21 22 22 22 22 23 23 23 23 23 23 21 20 21 21 22 22 22 23 23 22 22 20 18 18 20 27 33 37 37 30 30 27 27 26 26 27 30 34 33 37 39 44 45 47
23 23 23 23 24 24 25 25 26 25 24 22 22 23 23 24 23 23 22 21 22 22 22 22 20 19 20 23 27 33 38 37 29 30 26 25 22 24 28 28 30 33 38 41 45 48 48
24 25 26 26 26 27 27 28 27 25 24 25 24 24 24 23 21 19 22 20 21 21 17 18 20 19 23 25 28 31 38 36 27 28 27 23 21 20 22 31 26 31 40 42 43 44 47
25 25 26 26 27 27 27 27 26 25 25 24 22 21 20 19 20 21 21 19 18 17 19 15 15 16 19 22 28 34 40 35 28 26 24 23 23 21 19 22 27 29 35 42 40 42 43
24 24 25 25 25 25 25 26 26 24 22 20 18 16 18 15 15 14 15 13 13 13 14 11 17 14 20 25 34 36 40 35 29 27 19 20 20 17 19 19 31 34 42 47 53 49 52
25 25 24 23 23 23 24 23 22 20 17 17 18 17 15 13 9 7 12 14 17 15 11 12 28 16 29 33 31 37 42 33 26 22 23 18 19 19 16 30 37 43 43 47 52 53 51
25 24 23 22 21 23 24 24 23 21 19 17 18 19 20 15 8 15 15 11 14 19 29 25 24 24 27 32 26 38 44 31 29 23 30 25 24 25 28 29 31 35 39 44 51 51 52
26 24 22 22 22 23 23 23 21 19 18 18 20 21 21 24 14 18 15 16 21 19 21 23 22 26 29 30 28 38 43 33 32 30 33 29 19 25 27 29 32 35 38 45 48 46 46
27 26 25 23 23 22 22 21 21 19 19 21 23 25 25 26 19 21 25 23 19 21 15 21 23 29 34 32 26 38 41 35 32 34 34 27 24 27 29 30 33 33 38 44 49 50 48
28 27 25 24 24 24 23 23 22 21 20 21 24 27 29 25 20 21 23 24 20 20 16 23 29 28 34 35 21 36 34 35 30 34 34 22 28 30 29 29 34 39 42 44 45 47 50
28 27 26 24 25 25 25 25 26 25 24 24 29 30 31 27 22 24 22 22 20 17 23 24 26 23 30 37 25 38 31 34 35 36 27 22 36 33 27 28 38 43 44 45 47 50 48
28 27 27 27 26 26 27 28 28 27 27 28 27 31 32 24 25 24 23 20 18 20 25 22 24 32 31 34 30 35 31 33 26 36 27 34 28 19 22 29 41 49 46 51 45 47 42
29 28 27 27 26 27 28 28 29 28 28 28 23 24 28 26 23 24 20 18 21 26 26 25 27 29 27 35 32 39 38 37 42 44 45 38 29 31 26 50 46 48 46 46 46 36 32
30 29 28 28 29 29 30 30 30 29 28 27 19 20 29 29 25 22 19 19 27 26 26 25 26 25 29 38 32 40 39 35 37 40 42 46 49 42 50 48 51 38 37 34 40 36 39
31 31 30 29 30 31 32 31 31 30 28 25 18 19 29 28 25 22 20 27 24 25 25 25 24 26 29 34 33 38 36 34 35 39 44 45 42 45 45 42 38 31 37 36 40 39 38
32 32 32 31 31 32 33 33 32 31 29 26 18 17 33 24 23 20 24 24 23 25 24 24 29 28 33 36 35 37 33 32 34 36 41 43 52 40 42 40 33 36 30 30 23 24 23
32 33 33 33 33 33 34 34 33 33 27 21 19 18 31 14 18 25 27 24 23 25 25 26 27 27 31 35 33 34 32 33 40 40 42 45 43 38 30 35 31 30 25 24 26 28 28
33 34 34 34 34 34 35 35 35 35 31 21 24 24 26 24 26 25 27 24 21 24 25 25 25 29 31 33 31 31 34 36 38 38 43 41 36 35 26 23 31 29 25 21 22 27 27
32 33 34 34 34 35 36 36 36 35 36 21 22 25 27 27 26 27 24 24 26 26 27 27 26 28 29 31 31 30 32 34 36 37 41 37 34 37 30 28 31 24 24 20 18 17 17
32 32 33 34 34 35 36 38 37 36 34 22 20 23 25 28 27 24 23 27 26 24 23 26 23 27 31 29 29 28 35 34 37 37 35 34 30 27 17 3 29 25 22 19 13 16 17
31 31 33 35 35 35 36 37 38 37 34 20 23 23 21 25 27 27 27 24 27 28 24 27 25 30 30 31 32 32 32 32 34 36 40 36 32 23 10 6 23 22 20 20 17 15 17
31 32 33 34 35 36 36 37 38 39 32 31 23 22 22 23 21 24 24 25 28 27 25 27 28 29 27 30 29 31 30 32 36 38 40 35 30 22 25 27 25 25 25 21 19 18 18
30 32 32 33 34 34 35 37 39 38 35 27 25 20 19 20 25 24 25 23 26 26 23 25 27 28 28 28 22 19 20 22 28 34 39 34 26 23 22 21 14 27 27 23 23 20 19
29 30 31 32 32 33 34 37 37 36 36 29 26 19 22 24 24 25 23 23 23 24 22 24 27 27 26 20 17 16 14 20 23 29 33 31 25 21 19 18 25 23 26 27 22 21 21
28 28 29 30 30 31 33 35 36 35 35 30 26 24 22 22 22 23 21 24 22 21 22 23 26 23 22 22 27 30 27 26 25 26 33 28 23 24 22 19 13 29 30 31 23 23 27
26 27 27 27 28 29 31 32 34 35 33 26 30 24 21 21 23 20 20 22 24 24 22 22 24 21 22 24 29 33 34 31 31 29 29 29 22 22 21 20 21 23 33 32 24 27 33
23 24 25 25 26 27 28 29 31 32 32 27 25 27 21 21 21 20 21 22 21 21 22 23 26 24 22 28 29 31 31 26 33 33 34 33 27 27 22 22 17 26 31 33 26 33 36
20 21 22 23 24 24 25 27 27 27 28 25 24 25 21 18 18 17 19 21 20 19 24 25 25 24 26 29 29 29 27 27 27 28 27 30 28 25 20 22 19 25 25 32 30 33 35
17 19 20 21 22 22 22 23 21 19 20 21 21 24 20 18 15 15 17 18 17 20 20 21 22 25 25 25 25 24 26 26 28 31 21 28 21 20 15 14 15 22 21 22 20 34 36
Wind_Direction
342 340 339 338 336 335 332 330 328 326 323 322 320 317 316 319 323 331 348 10 20 22 26 32 42 40 29 21 0 348 340 335 351 348 347 342 335 328 318 311 304 298 294 292 286 285 283
347 345 342 340 338 336 334 332 331 328 322 319 318 320 324 327 328 337 359 17 11 3 12 28 35 37 27 11 4 353 342 338 353 348 351 349 345 336 324 318 310 306 300 295 290 286 285
349 347 346 344 341 338 336 335 331 324 321 324 321 321 324 326 322 323 355 21 16 18 33 28 21 23 20 14 3 358 346 345 354 349 346 349 346 341 336 319 320 312 302 297 294 292 287
348 346 344 341 339 335 333 330 327 324 323 321 317 316 314 314 319 327 29 50 51 57 48 52 40 38 23 19 6 356 346 349 353 349 348 347 344 337 329 327 320 315 309 297 299 300 294
345 343 340 338 335 333 330 330 328 323 316 313 310 306 305 298 291 288 70 88 76 64 55 58 32 42 17 4 357 355 346 349 351 348 353 348 350 343 337 322 317 317 308 302 295 297 292
345 343 339 336 334 332 331 329 327 322 314 312 314 309 300 273 264 203 100 80 58 53 59 54 13 30 5 356 358 352 345 352 358 356 352 351 344 334 340 335 318 314 310 304 300 299 294
343 339 336 333 332 332 332 330 328 323 317 313 315 314 312 289 91 61 57 53 40 30 18 28 21 21 8 3 8 355 347 357 2 3 352 346 341 338 331 331 324 318 314 312 308 305 293
343 338 335 333 332 332 332 330 327 322 318 315 317 317 316 342 69 52 53 37 27 26 22 26 23 16 8 4 4 358 352 3 360 355 351 349 342 343 335 328 323 318 317 316 317 310 296
344 340 338 334 333 332 330 329 327 321 318 320 321 323 325 353 43 38 30 26 29 19 25 16 19 8 3 2 4 358 356 0 359 354 350 345 345 341 333 330 326 321 319 319 317 307 294
344 342 338 336 334 333 331 329 326 321 317 322 326 332 337 11 38 29 25 18 24 23 23 16 6 7 2 1 12 3 7 5 0 354 350 350 347 338 333 331 331 319 319 318 319 309 288
343 342 339 335 335 334 332 331 329 324 319 322 338 339 348 21 28 25 20 20 26 32 11 13 10 17 7 8 6 359 9 4 357 353 351 342 341 335 331 334 329 319 318 316 314 300 289
343 341 340 338 335 333 332 332 329 327 329 345 16 11 358 28 30 22 19 27 34 24 15 18 15 4 8 7 10 3 8 9 12 358 6 347 341 342 339 332 326 319 316 310 309 290 275
344 341 338 336 334 333 333 331 330 327 330 359 30 33 23 26 26 22 29 37 23 19 14 11 9 8 13 6 7 4 2 4 3 355 350 351 352 341 349 326 322 322 316 312 290 292 284
344 342 339 337 336 335 334 332 330 328 329 13 40 42 24 24 24 29 35 33 19 19 18 14 11 14 15 8 8 3 3 4 7 4 353 349 341 342 328 323 318 316 315 307 280 279 272
346 344 340 337 336 336 335 333 331 327 326 18 44 44 21 21 26 29 32 22 23 22 19 16 17 18 14 9 8 5 7 9 7 7 357 346 336 329 330 328 325 314 306 300 285 267 254
347 346 342 339 337 336 336 334 331 328 326 16 41 42 15 25 26 38 32 32 32 28 25 26 20 20 10 8 9 8 10 11 7 5 359 344 333 339 341 332 321 313 313 294 286 270 259
347 346 344 341 339 337 337 335 333 332 318 32 41 35 14 34 44 36 30 35 36 31 32 29 24 19 15 10 9 9 10 8 8 359 358 353 350 346 357 351 346 322 311 295 278 260 259
348 348 346 343 341 339 338 337 336 338 326 35 30 25 24 31 31 35 33 36 39 33 34 31 29 22 19 12 13 16 10 10 6 0 0 3 359 358 357 7 337 321 313 307 278 267 279
347 346 345 343 341 340 341 339 338 338 359 33 32 30 28 36 30 36 43 38 36 33 30 28 27 24 20 16 15 14 12 11 6 10 7 6 6 1 355 335 327 347 338 321 283 282 305
345 343 343 344 341 341 342 342 340 338 340 32 33 26 31 34 38 35 33 30 32 34 34 28 31 25 19 18 18 14 11 12 16 17 13 9 9 9 11 349 300 334 341 340 314 296 287
345 342 345 348 346 343 343 342 342 340 334 38 36 33 39 31 34 34 34 34 28 26 30 30 28 21 18 16 15 16 13 15 17 18 15 17 14 25 49 109 324 5 355 342 331 312 299
348 347 351 353 352 348 346 345 346 345 336 28 35 36 43 39 40 31 33 32 26 26 29 25 22 19 20 19 16 10 12 15 17 16 17 23 28 42 53 55 37 0 353 351 338 323 311
348 350 354 355 354 350 349 350 352 352 2 34 38 46 45 41 33 31 29 32 27 28 35 29 24 19 20 16 15 15 15 16 19 19 19 25 33 42 47 52 61 346 342 341 330 327 316
348 352 356 356 356 355 356 358 354 354 1 32 35 47 41 34 34 31 34 33 30 30 29 28 25 23 19 18 11 8 16 22 24 25 26 27 32 41 37 55 23 13 353 338 338 330 322
349 353 356 358 360 0 4 5 359 359 1 30 35 39 40 34 36 33 36 29 31 33 31 27 26 25 23 19 22 22 26 24 24 26 26 31 32 32 32 35 57 354 331 322 325 318 323
352 354 357 359 1 3 6 8 5 7 359 37 29 39 45 38 32 38 36 33 27 27 27 28 28 28 27 24 23 19 17 19 20 20 26 28 33 34 31 33 28 23 335 321 324 291 318
353 355 355 359 0 5 10 12 14 16 7 32 37 32 45 39 40 42 36 31 32 32 26 25 21 27 30 21 20 20 18 22 18 15 15 20 26 28 31 33 47 27 15 342 327 304 312
355 355 355 355 359 5 13 15 21 29 26 36 40 36 44 48 48 52 43 34 33 33 25 22 25 29 26 24 23 22 20 20 16 11 18 17 22 27 31 30 35 22 24 14 352 332 320
356 354 352 353 359 6 14 19 35 47 46 43 40 34 44 50 50 54 44 42 43 40 34 30 32 28 29 25 25 24 15 15 13 11 22 17 24 22 32 28 27 21 27 31 31 351 331